International Skating Union - Official Site

ESSENT ISU EUROPEAN SPEED SKATING CHAMPIONSHIPS 2011
January 7-9, 2011

Draw | Lap Times | Index | Classification

Referee: Jacques  DE KONING  (NED)
Starter: Trond  RATDAL  (NOR)
StartTime: EndTime: Air Temp: Ice Temp: Humidity:
14:00 17:00 1℃ -5.5℃ 53%
Result 5000m Men
Rankings as of Jan 7 2011 6:18PM
Rank: No.: Name: Nation: Time: Behind: Points:
1 33 Ivan  SKOBREV RUS RUS 6:30.01200m - 19.28 - (19.2)
600m - 49.37 - (30.0)
1000m - 1:19.97 - (30.6)
1400m - 1:50.59 - (30.6)
1800m - 2:21.68 - (31.0)
2200m - 2:52.87 - (31.1)
2600m - 3:24.05 - (31.1)
3000m - 3:55.23 - (31.1)
3400m - 4:26.13 - (30.9)
3800m - 4:57.16 - (31.0)
4200m - 5:28.23 - (31.0)
4600m - 5:59.19 - (30.9)
5000m - 6:30.01 - (30.8)
39.001
2 20 Koen  VERWEIJ NED NED 6:30.49200m - 19.18 - (19.1)
600m - 49.86 - (30.6)
1000m - 1:20.91 - (31.0)
1400m - 1:51.87 - (30.9)
1800m - 2:22.62 - (30.7)
2200m - 2:53.78 - (31.1)
2600m - 3:24.60 - (30.8)
3000m - 3:55.36 - (30.7)
3400m - 4:26.18 - (30.8)
3800m - 4:57.30 - (31.1)
4200m - 5:28.40 - (31.1)
4600m - 5:59.61 - (31.2)
5000m - 6:30.49 - (30.8)
0.48 39.049
3 18 Wouter  OLDE HEUVEL NED NED 6:31.14200m - 19.34 - (19.3)
600m - 49.36 - (30.0)
1000m - 1:19.98 - (30.6)
1400m - 1:50.46 - (30.4)
1800m - 2:20.99 - (30.5)
2200m - 2:51.61 - (30.6)
2600m - 3:22.33 - (30.7)
3000m - 3:53.16 - (30.8)
3400m - 4:24.30 - (31.1)
3800m - 4:55.95 - (31.6)
4200m - 5:27.92 - (31.9)
4600m - 5:59.67 - (31.7)
5000m - 6:31.14 - (31.4)
1.13 39.114
4 17 Jan  BLOKHUIJSEN NED NED 6:32.21200m - 18.49 - (18.4)
600m - 48.49 - (30.0)
1000m - 1:18.97 - (30.4)
1400m - 1:49.84 - (30.8)
1800m - 2:20.74 - (30.9)
2200m - 2:51.67 - (30.9)
2600m - 3:22.66 - (30.9)
3000m - 3:53.85 - (31.1)
3400m - 4:25.21 - (31.3)
3800m - 4:56.69 - (31.4)
4200m - 5:28.10 - (31.4)
4600m - 5:59.95 - (31.8)
5000m - 6:32.21 - (32.2)
2.20 39.221
5 22 Håvard  BØKKO NOR NOR 6:32.70200m - 19.03 - (19.0)
600m - 49.59 - (30.5)
1000m - 1:20.96 - (31.3)
1400m - 1:51.94 - (30.9)
1800m - 2:23.27 - (31.3)
2200m - 2:54.31 - (31.0)
2600m - 3:25.32 - (31.0)
3000m - 3:56.37 - (31.0)
3400m - 4:27.45 - (31.0)
3800m - 4:58.73 - (31.2)
4200m - 5:30.09 - (31.3)
4600m - 6:01.48 - (31.3)
5000m - 6:32.70 - (31.2)
2.69 39.270
6 19 Renz  ROTTEVEEL NED NED 6:37.51200m - 19.56 - (19.5)
600m - 49.80 - (30.2)
1000m - 1:20.24 - (30.4)
1400m - 1:51.29 - (31.0)
1800m - 2:22.42 - (31.1)
2200m - 2:53.64 - (31.2)
2600m - 3:24.73 - (31.0)
3000m - 3:56.16 - (31.4)
3400m - 4:28.01 - (31.8)
3800m - 5:00.30 - (32.2)
4200m - 5:32.51 - (32.2)
4600m - 6:04.94 - (32.4)
5000m - 6:37.51 - (32.5)
7.50 39.751
7 24 Sverre  LUNDE PEDERSEN NOR NOR 6:38.12200m - 19.68 - (19.6)
600m - 50.51 - (30.8)
1000m - 1:21.82 - (31.3)
1400m - 1:53.36 - (31.5)
1800m - 2:24.93 - (31.5)
2200m - 2:56.11 - (31.1)
2600m - 3:27.66 - (31.5)
3000m - 3:59.19 - (31.5)
3400m - 4:30.74 - (31.5)
3800m - 5:02.43 - (31.6)
4200m - 5:33.97 - (31.5)
4600m - 6:05.48 - (31.5)
5000m - 6:38.12 - (32.6)
8.11 39.812
8 7 Alexis  CONTIN FRA FRA 6:39.08200m - 19.06 - (19.0)
600m - 49.17 - (30.1)
1000m - 1:19.97 - (30.8)
1400m - 1:51.02 - (31.0)
1800m - 2:22.29 - (31.2)
2200m - 2:53.63 - (31.3)
2600m - 3:25.06 - (31.4)
3000m - 3:56.34 - (31.2)
3400m - 4:27.93 - (31.5)
3800m - 5:00.07 - (32.1)
4200m - 5:32.33 - (32.2)
4600m - 6:05.41 - (33.0)
5000m - 6:39.08 - (33.6)
9.07 39.908
9 23 Henrik  CHRISTIANSEN NOR NOR 6:41.21200m - 19.70 - (19.7)
600m - 50.36 - (30.6)
1000m - 1:21.58 - (31.2)
1400m - 1:52.93 - (31.3)
1800m - 2:24.11 - (31.1)
2200m - 2:55.33 - (31.2)
2600m - 3:26.36 - (31.0)
3000m - 3:57.70 - (31.3)
3400m - 4:29.38 - (31.6)
3800m - 5:01.59 - (32.2)
4200m - 5:34.29 - (32.7)
4600m - 6:07.43 - (33.1)
5000m - 6:41.21 - (33.7)
11.20 40.121
10 13 Enrico  FABRIS ITA ITA 6:43.06200m - 19.01 - (19.0)
600m - 49.94 - (30.9)
1000m - 1:21.34 - (31.4)
1400m - 1:53.12 - (31.7)
1800m - 2:25.03 - (31.9)
2200m - 2:57.09 - (32.0)
2600m - 3:29.14 - (32.0)
3000m - 4:01.29 - (32.1)
3400m - 4:33.51 - (32.2)
3800m - 5:05.83 - (32.3)
4200m - 5:38.10 - (32.2)
4600m - 6:10.48 - (32.3)
5000m - 6:43.06 - (32.5)
13.05 40.306
11 14 Luca  STEFANI ITA ITA 6:47.71200m - 19.01 - (19.0)
600m - 50.18 - (31.1)
1000m - 1:21.90 - (31.7)
1400m - 1:53.83 - (31.9)
1800m - 2:25.85 - (32.0)
2200m - 2:58.32 - (32.4)
2600m - 3:30.79 - (32.4)
3000m - 4:03.51 - (32.7)
3400m - 4:36.22 - (32.7)
3800m - 5:08.66 - (32.4)
4200m - 5:41.72 - (33.0)
4600m - 6:14.56 - (32.8)
5000m - 6:47.71 - (33.1)
17.70 40.771
12 2 Bart  SWINGS BEL BEL 6:48.09200m - 19.84 - (19.8)
600m - 50.72 - (30.8)
1000m - 1:22.77 - (32.0)
1400m - 1:54.73 - (31.9)
1800m - 2:27.34 - (32.6)
2200m - 2:59.67 - (32.3)
2600m - 3:32.51 - (32.8)
3000m - 4:05.03 - (32.5)
3400m - 4:38.00 - (32.9)
3800m - 5:10.75 - (32.7)
4200m - 5:43.30 - (32.5)
4600m - 6:15.71 - (32.4)
5000m - 6:48.09 - (32.3)
18.08 40.809
13 9 Robert  LEHMANN GER GER 6:48.57200m - 19.37 - (19.3)
600m - 50.83 - (31.4)
1000m - 1:23.19 - (32.3)
1400m - 1:55.20 - (32.0)
1800m - 2:27.03 - (31.8)
2200m - 2:59.38 - (32.3)
2600m - 3:32.07 - (32.6)
3000m - 4:04.65 - (32.5)
3400m - 4:37.21 - (32.5)
3800m - 5:10.05 - (32.8)
4200m - 5:42.82 - (32.7)
4600m - 6:15.96 - (33.1)
5000m - 6:48.57 - (32.6)
18.56 40.857
14 16 Haralds  SILOVS LAT LAT 6:48.64200m - 19.52 - (19.5)
600m - 50.25 - (30.7)
1000m - 1:22.54 - (32.2)
1400m - 1:54.99 - (32.4)
1800m - 2:27.99 - (33.0)
2200m - 3:00.33 - (32.3)
2600m - 3:33.07 - (32.7)
3000m - 4:05.94 - (32.8)
3400m - 4:38.69 - (32.7)
3800m - 5:11.45 - (32.7)
4200m - 5:43.84 - (32.3)
4600m - 6:16.31 - (32.4)
5000m - 6:48.64 - (32.3)
18.63 40.864
15 32 Pavel  BAYNOV RUS RUS 6:49.74200m - 19.32 - (19.3)
600m - 49.72 - (30.4)
1000m - 1:20.79 - (31.0)
1400m - 1:52.05 - (31.2)
1800m - 2:23.70 - (31.6)
2200m - 2:55.49 - (31.7)
2600m - 3:27.80 - (32.3)
3000m - 4:00.47 - (32.6)
3400m - 4:33.71 - (33.2)
3800m - 5:07.42 - (33.7)
4200m - 5:41.30 - (33.8)
4600m - 6:15.50 - (34.2)
5000m - 6:49.74 - (34.2)
19.73 40.974
16 28 Roland  CIESLAK POL POL 6:51.85200m - 20.39 - (20.3)
600m - 52.39 - (32.0)
1000m - 1:24.46 - (32.0)
1400m - 1:56.75 - (32.2)
1800m - 2:28.95 - (32.2)
2200m - 3:01.38 - (32.4)
2600m - 3:33.82 - (32.4)
3000m - 4:06.64 - (32.8)
3400m - 4:39.23 - (32.5)
3800m - 5:12.05 - (32.8)
4200m - 5:45.16 - (33.1)
4600m - 6:18.52 - (33.3)
5000m - 6:51.85 - (33.3)
21.84 41.185
17 29 Konrad  NIEDZWIEDZKI POL POL 6:54.67200m - 19.52 - (19.5)
600m - 50.58 - (31.0)
1000m - 1:22.76 - (32.1)
1400m - 1:54.63 - (31.8)
1800m - 2:26.70 - (32.0)
2200m - 2:58.90 - (32.2)
2600m - 3:31.37 - (32.4)
3000m - 4:04.68 - (33.3)
3400m - 4:38.14 - (33.4)
3800m - 5:11.84 - (33.7)
4200m - 5:46.23 - (34.3)
4600m - 6:20.51 - (34.2)
5000m - 6:54.67 - (34.1)
24.66 41.467
18 12 Marco  CIGNINI ITA ITA 6:55.04200m - 19.24 - (19.2)
600m - 50.75 - (31.5)
1000m - 1:22.70 - (31.9)
1400m - 1:55.24 - (32.5)
1800m - 2:26.72 - (31.4)
2200m - 2:58.83 - (32.1)
2600m - 3:30.54 - (31.7)
3000m - 4:03.04 - (32.5)
3400m - 4:35.86 - (32.8)
3800m - 5:09.35 - (33.4)
4200m - 5:43.71 - (34.3)
4600m - 6:18.91 - (35.2)
5000m - 6:55.04 - (36.1)
25.03 41.504
19 36 Joel  ERIKSSON SWE SWE 6:55.11200m - 19.29 - (19.2)
600m - 50.86 - (31.5)
1000m - 1:23.35 - (32.4)
1400m - 1:55.76 - (32.4)
1800m - 2:28.08 - (32.3)
2200m - 3:00.79 - (32.7)
2600m - 3:33.83 - (33.0)
3000m - 4:07.07 - (33.2)
3400m - 4:40.54 - (33.4)
3800m - 5:13.97 - (33.4)
4200m - 5:47.54 - (33.5)
4600m - 6:21.36 - (33.8)
5000m - 6:55.11 - (33.7)
25.10 41.511
20 27 Zbigniew  BRODKA POL POL 6:56.02200m - 19.68 - (19.6)
600m - 51.29 - (31.6)
1000m - 1:24.23 - (32.9)
1400m - 1:57.26 - (33.0)
1800m - 2:29.74 - (32.4)
2200m - 3:02.72 - (32.9)
2600m - 3:36.09 - (33.3)
3000m - 4:09.35 - (33.2)
3400m - 4:42.61 - (33.2)
3800m - 5:16.10 - (33.4)
4200m - 5:49.55 - (33.4)
4600m - 6:22.73 - (33.1)
5000m - 6:56.02 - (33.2)
26.01 41.602
21 10 Tobias  SCHNEIDER GER GER 6:57.58200m - 19.26 - (19.2)
600m - 49.79 - (30.5)
1000m - 1:21.02 - (31.2)
1400m - 1:52.38 - (31.3)
1800m - 2:24.11 - (31.7)
2200m - 2:56.43 - (32.3)
2600m - 3:29.45 - (33.0)
3000m - 4:02.92 - (33.4)
3400m - 4:36.84 - (33.9)
3800m - 5:11.29 - (34.4)
4200m - 5:46.46 - (35.1)
4600m - 6:22.10 - (35.6)
5000m - 6:57.58 - (35.4)
27.57 41.758
22 38 Roger  SCHNEIDER SUI SUI 6:57.60200m - 19.70 - (19.7)
600m - 50.72 - (31.0)
1000m - 1:22.25 - (31.5)
1400m - 1:54.23 - (31.9)
1800m - 2:26.26 - (32.0)
2200m - 2:58.63 - (32.3)
2600m - 3:31.54 - (32.9)
3000m - 4:04.89 - (33.3)
3400m - 4:38.49 - (33.6)
3800m - 5:12.58 - (34.0)
4200m - 5:47.39 - (34.8)
4600m - 6:22.73 - (35.3)
5000m - 6:57.60 - (34.8)
27.59 41.760
23 4 Milan  SÁBLIK CZE CZE 6:58.24200m - 19.39 - (19.3)
600m - 50.89 - (31.5)
1000m - 1:22.90 - (32.0)
1400m - 1:55.81 - (32.9)
1800m - 2:28.61 - (32.8)
2200m - 3:01.43 - (32.8)
2600m - 3:34.89 - (33.4)
3000m - 4:08.81 - (33.9)
3400m - 4:42.66 - (33.8)
3800m - 5:16.12 - (33.4)
4200m - 5:50.18 - (34.0)
4600m - 6:24.20 - (34.0)
5000m - 6:58.24 - (34.0)
28.23 41.824
24 8 Benjamin  MACÉ FRA FRA 6:59.31200m - 19.99 - (19.9)
600m - 51.00 - (31.0)
1000m - 1:22.22 - (31.2)
1400m - 1:54.64 - (32.4)
1800m - 2:27.18 - (32.5)
2200m - 3:00.12 - (32.9)
2600m - 3:32.76 - (32.6)
3000m - 4:06.43 - (33.6)
3400m - 4:39.76 - (33.3)
3800m - 5:13.33 - (33.5)
4200m - 5:48.05 - (34.7)
4600m - 6:23.53 - (35.4)
5000m - 6:59.31 - (35.8)
29.30 41.931
25 3 Vitaly  MIKHAILOV BLR BLR 7:00.63200m - 20.19 - (20.1)
600m - 52.45 - (32.2)
1000m - 1:25.16 - (32.7)
1400m - 1:58.07 - (32.9)
1800m - 2:31.26 - (33.1)
2200m - 3:04.60 - (33.3)
2600m - 3:38.07 - (33.4)
3000m - 4:11.58 - (33.5)
3400m - 4:45.32 - (33.7)
3800m - 5:19.35 - (34.0)
4200m - 5:53.51 - (34.1)
4600m - 6:27.18 - (33.6)
5000m - 7:00.63 - (33.4)
30.62 42.063
26 31 Marian Cristian  ION ROU ROU 7:01.23200m - 20.01 - (20.0)
600m - 52.27 - (32.2)
1000m - 1:25.68 - (33.4)
1400m - 1:58.92 - (33.2)
1800m - 2:32.21 - (33.2)
2200m - 3:05.30 - (33.0)
2600m - 3:38.62 - (33.3)
3000m - 4:11.94 - (33.3)
3400m - 4:45.37 - (33.4)
3800m - 5:19.11 - (33.7)
4200m - 5:53.27 - (34.1)
4600m - 6:27.28 - (34.0)
5000m - 7:01.23 - (33.9)
31.22 42.123
27 1 Christian  PICHLER AUT AUT 7:02.42200m - 21.32 - (21.3)
600m - 54.01 - (32.6)
1000m - 1:27.07 - (33.0)
1400m - 1:59.78 - (32.7)
1800m - 2:32.17 - (32.3)
2200m - 3:04.73 - (32.5)
2600m - 3:37.43 - (32.7)
3000m - 4:10.24 - (32.8)
3400m - 4:43.37 - (33.1)
3800m - 5:17.16 - (33.7)
4200m - 5:52.01 - (34.8)
4600m - 6:27.21 - (35.2)
5000m - 7:02.42 - (35.2)
32.41 42.242
28 37 Daniel  FRIBERG SWE SWE 7:13.82200m - 19.81 - (19.8)
600m - 52.95 - (33.1)
1000m - 1:26.59 - (33.6)
1400m - 2:00.53 - (33.9)
1800m - 2:34.87 - (34.3)
2200m - 3:09.40 - (34.5)
2600m - 3:43.65 - (34.2)
3000m - 4:17.94 - (34.2)
3400m - 4:52.64 - (34.7)
3800m - 5:27.84 - (35.2)
4200m - 6:03.05 - (35.2)
4600m - 6:38.20 - (35.1)
5000m - 7:13.82 - (35.6)
43.81 43.382
29 6 Niko  RÄSÄNEN FIN FIN 7:24.57200m - 20.44 - (20.4)
600m - 52.39 - (31.9)
1000m - 1:25.16 - (32.7)
1400m - 1:58.05 - (32.8)
1800m - 2:31.50 - (33.4)
2200m - 3:05.56 - (34.0)
2600m - 3:40.49 - (34.9)
3000m - 4:15.97 - (35.4)
3400m - 4:52.38 - (36.4)
3800m - 5:29.50 - (37.1)
4200m - 6:07.36 - (37.8)
4600m - 6:45.58 - (38.2)
5000m - 7:24.57 - (38.9)
54.56 44.457